STARLINK-2756, 48683

Orbit data source: Space-Track

STARLINK-2756, 48683 is a payload satellite owned by SpaceX/Seattle (US) in LEO that was launched on Wed, 26 May 2021 UTC via an FALCON 9 launch vehicle from the Air Force Eastern Test Range (AFETR). Payload-class satellites include a variety of spacecraft equipped with specific instruments for various scientific and technological missions. These include communications satellites like Starlink; space stations such as the ISS; scientific satellites like the Hubble; Earth observation satellites from companies like Planet Labs, Umbra, and HawkEye 360; GPS; miniature CubeSats for education and research; and military/defense satellites.

Loading next visibility...
Identifier
48683, 2021-044AX
Orbit
LEO
Country
Flag of USUS
Related business
Manufacturer
SpaceX/Seattle
Mission
Operational Commercial Communications
Bus & Motor
STARLINK, Unknown motor
Mass
260 kg wet, ~248 kg dry
Launch date (UTC)
2021-05-26 (5 years ago)
Launch vehicle
FALCON 9
Launch site
Air Force Eastern Test Range (AFETR)
Object type
Payload
Rocket body
Debris
Shape & HBR
Box + 1 Pan, 10.1 m
Radar Cross Section
13.562 m², Large (>1 m²)

Expand to show TLE details & history
Last TLE update: 2 days ago

TLE from 2 days ago
0 STARLINK-2756
1 48683U 21044AX  26171.42292428  .00000644  00000-0  32525-4 0  9995
2 48683  53.1600 307.2634 0001087  88.4957 271.6168 15.31697609280242
Epoch: 2026-06-20T10:09Z
TLE epoch observation values (Epoch: 2026-06-20T10:09:00.657Z)
Latitude
-0.00011°
Longitude
-113.62719°
Altitude
471.627 km
Speed
7.631 km/s
True Right ascension
20h 29m 03s
True Declination
0° 00' 00"
Sunlit
Object was in full shadow at epoch
Visualization orbit readout
Latitude
Unknown
Longitude
Unknown
Altitude
Unknown
Speed
Unknown
Apparent Right ascension
Unknown
Apparent Declination
Unknown
Sunlit
N/A
Visualization observer readout
Local Sidereal Time
21:38:11
Azimuth
Unknown
Elevation
Unknown
Doppler factor
Unknown
Orbital elements
Apogee altitude
471.748 km
Perigee altitude
470.259 km
Semi-major axis
6,849.141 km
Eccentricity
0.00011
Inclination
53.16°
RAAN
307.2634°
Arg. of periapsis
88.4957°
True anomaly
271.60435°
Mean anomaly
271.6168°
Eccentric anomaly
271.61057°
Mean motion
3.82903 °/min
Orbital period
94.02 mins
BSTAR
0.000032525
Loading maneuver chart data...
Computing Atmospheric mass density...

Documentation

Showing up to 5 results
|